Wetterdaten: Sonntag, 12.04.2015
Datum Zeit Temp. A. Feuchte A. Luftdruck Regen Wind Richtung Richtung Sonnenschein ET UV Solar Taupunkt Windchill Windben Empfang
12.04.2015 00:00 12,6 C 56 % 1026,3 hPa 0,0 l/m 0,7 km/h (0 Bft) SW 230 0 min 0,000 mm 0,0 UV-I 0 W/m 4,1 C 12,6 C 4,0 km/h (1 Bft) 0,00 %
12.04.2015 00:15 12,7 C 55 % 1026,3 hPa 0,0 l/m 2,2 km/h (1 Bft) S-SW 209 0 min 0,000 mm 0,0 UV-I 0 W/m 3,9 C 12,7 C 4,0 km/h (1 Bft) 0,00 %
12.04.2015 00:30 12,4 C 58 % 1026,6 hPa 0,0 l/m 3,2 km/h (1 Bft) W-SW 256 0 min 0,000 mm 0,0 UV-I 0 W/m 4,4 C 12,4 C 11,9 km/h (2 Bft) 0,00 %
12.04.2015 00:45 12,4 C 58 % 1026,4 hPa 0,0 l/m 6,5 km/h (2 Bft) S 191 0 min 0,000 mm 0,0 UV-I 0 W/m 4,4 C 12,4 C 7,9 km/h (2 Bft) 0,00 %
12.04.2015 01:00 12,4 C 58 % 1026,8 hPa 0,0 l/m 3,2 km/h (1 Bft) W-SW 255 0 min 0,000 mm 0,0 UV-I 0 W/m 4,4 C 12,4 C 4,0 km/h (1 Bft) 0,00 %
12.04.2015 01:15 12,3 C 59 % 1026,8 hPa 0,0 l/m 0,4 km/h (0 Bft) S-SW 195 0 min 0,000 mm 0,0 UV-I 0 W/m 4,5 C 12,3 C 4,0 km/h (1 Bft) 0,00 %
12.04.2015 01:30 12,1 C 60 % 1027,1 hPa 0,0 l/m 0,7 km/h (0 Bft) O-SO 114 0 min 0,000 mm 0,0 UV-I 0 W/m 4,6 C 12,1 C 4,0 km/h (1 Bft) 0,00 %
12.04.2015 01:45 12,0 C 60 % 1027,2 hPa 0,0 l/m 5,8 km/h (2 Bft) S 189 0 min 0,000 mm 0,0 UV-I 0 W/m 4,5 C 12,0 C 7,9 km/h (2 Bft) 0,00 %
12.04.2015 02:00 11,6 C 61 % 1027,3 hPa 0,0 l/m 1,4 km/h (1 Bft) S-SW 212 0 min 0,000 mm 0,0 UV-I 0 W/m 4,3 C 11,6 C 4,0 km/h (1 Bft) 0,00 %
12.04.2015 02:15 11,4 C 62 % 1027,5 hPa 0,0 l/m 1,8 km/h (1 Bft) S-SW 200 0 min 0,000 mm 0,0 UV-I 0 W/m 4,4 C 11,4 C 4,0 km/h (1 Bft) 0,00 %
12.04.2015 02:30 11,3 C 62 % 1027,4 hPa 0,0 l/m 0,7 km/h (0 Bft) SW 218 0 min 0,000 mm 0,0 UV-I 0 W/m 4,3 C 11,3 C 4,0 km/h (1 Bft) 0,00 %
12.04.2015 02:45 11,2 C 63 % 1027,4 hPa 0,0 l/m 1,4 km/h (1 Bft) SW 214 0 min 0,000 mm 0,0 UV-I 0 W/m 4,4 C 11,2 C 4,0 km/h (1 Bft) 0,00 %
12.04.2015 03:00 10,8 C 64 % 1027,6 hPa 0,0 l/m 0,0 km/h (0 Bft) S 177 0 min 0,000 mm 0,0 UV-I 0 W/m 4,3 C 10,8 C 0,0 km/h (0 Bft) 0,00 %
12.04.2015 03:15 10,7 C 64 % 1027,7 hPa 0,0 l/m 0,4 km/h (0 Bft) SO 129 0 min 0,000 mm 0,0 UV-I 0 W/m 4,2 C 10,7 C 4,0 km/h (1 Bft) 0,00 %
12.04.2015 03:30 10,8 C 64 % 1027,7 hPa 0,0 l/m 0,7 km/h (0 Bft) S 174 0 min 0,000 mm 0,0 UV-I 0 W/m 4,3 C 10,8 C 4,0 km/h (1 Bft) 0,00 %
12.04.2015 03:45 10,9 C 64 % 1027,8 hPa 0,0 l/m 4,0 km/h (1 Bft) SW 226 0 min 0,000 mm 0,0 UV-I 0 W/m 4,4 C 10,9 C 7,9 km/h (2 Bft) 0,00 %
12.04.2015 04:00 11,0 C 63 % 1028,3 hPa 0,0 l/m 1,4 km/h (1 Bft) NW 310 0 min 0,000 mm 0,0 UV-I 0 W/m 4,2 C 11,0 C 4,0 km/h (1 Bft) 0,00 %
12.04.2015 04:15 11,0 C 63 % 1028,4 hPa 0,0 l/m 3,2 km/h (1 Bft) W-SW 256 0 min 0,000 mm 0,0 UV-I 0 W/m 4,2 C 11,0 C 7,9 km/h (2 Bft) 0,00 %
12.04.2015 04:30 10,9 C 64 % 1028,5 hPa 0,0 l/m 2,2 km/h (1 Bft) W-SW 255 0 min 0,000 mm 0,0 UV-I 0 W/m 4,4 C 10,9 C 4,0 km/h (1 Bft) 0,00 %
12.04.2015 04:45 10,7 C 65 % 1028,7 hPa 0,0 l/m 0,4 km/h (0 Bft) S-SW 197 0 min 0,000 mm 0,0 UV-I 0 W/m 4,4 C 10,7 C 4,0 km/h (1 Bft) 0,00 %
12.04.2015 05:00 10,4 C 67 % 1028,8 hPa 0,0 l/m 4,3 km/h (1 Bft) W-SW 251 0 min 0,000 mm 0,0 UV-I 0 W/m 4,5 C 10,4 C 7,9 km/h (2 Bft) 0,00 %
12.04.2015 05:15 10,0 C 69 % 1029,1 hPa 0,0 l/m 0,0 km/h (0 Bft) S 179 0 min 0,000 mm 0,0 UV-I 0 W/m 4,6 C 10,0 C 0,0 km/h (0 Bft) 0,00 %
12.04.2015 05:30 9,7 C 70 % 1029,1 hPa 0,0 l/m 0,4 km/h (0 Bft) O-SO 119 0 min 0,000 mm 0,0 UV-I 0 W/m 4,5 C 9,7 C 4,0 km/h (1 Bft) 0,00 %
12.04.2015 05:45 9,6 C 70 % 1029,1 hPa 0,0 l/m 0,0 km/h (0 Bft) S-SW 200 0 min 0,000 mm 0,0 UV-I 0 W/m 4,4 C 9,6 C 0,0 km/h (0 Bft) 0,00 %
12.04.2015 06:00 9,4 C 71 % 1029,2 hPa 0,0 l/m 0,0 km/h (0 Bft) S 179 0 min 0,000 mm 0,0 UV-I 0 W/m 4,4 C 9,4 C 0,0 km/h (0 Bft) 0,00 %
12.04.2015 06:15 9,2 C 71 % 1029,3 hPa 0,0 l/m 0,0 km/h (0 Bft) SW 216 0 min 0,000 mm 0,0 UV-I 0 W/m 4,2 C 9,2 C 0,0 km/h (0 Bft) 0,00 %
12.04.2015 06:30 9,5 C 70 % 1029,4 hPa 0,0 l/m 0,0 km/h (0 Bft) S 173 0 min 0,000 mm 0,0 UV-I 1 W/m 4,3 C 9,5 C 0,0 km/h (0 Bft) 0,00 %
12.04.2015 06:45 9,7 C 68 % 1029,5 hPa 0,0 l/m 0,0 km/h (0 Bft) SW 219 0 min 0,000 mm 0,0 UV-I 7 W/m 4,1 C 9,7 C 0,0 km/h (0 Bft) 0,00 %
12.04.2015 07:00 10,0 C 68 % 1029,7 hPa 0,0 l/m 0,0 km/h (0 Bft) S 184 0 min 0,000 mm 0,0 UV-I 24 W/m 4,4 C 10,0 C 0,0 km/h (0 Bft) 0,00 %
12.04.2015 07:15 10,2 C 67 % 1029,7 hPa 0,0 l/m 0,0 km/h (0 Bft) W-SW 243 0 min 0,000 mm 1,0 UV-I 55 W/m 4,4 C 10,2 C 0,0 km/h (0 Bft) 0,00 %
12.04.2015 07:30 10,7 C 64 % 1029,9 hPa 0,0 l/m 0,0 km/h (0 Bft) S 176 0 min 0,000 mm 1,0 UV-I 90 W/m 4,2 C 10,7 C 0,0 km/h (0 Bft) 0,00 %
12.04.2015 07:45 11,7 C 61 % 1030,1 hPa 0,0 l/m 0,4 km/h (0 Bft) S-SW 206 15 min 0,000 mm 1,0 UV-I 129 W/m 4,4 C 11,7 C 4,0 km/h (1 Bft) 0,00 %
12.04.2015 08:00 12,6 C 61 % 1029,9 hPa 0,0 l/m 0,0 km/h (0 Bft) O-NO 71 15 min 0,000 mm 1,0 UV-I 156 W/m 5,3 C 12,6 C 0,0 km/h (0 Bft) 0,00 %
12.04.2015 08:15 12,7 C 59 % 1030,0 hPa 0,0 l/m 0,0 km/h (0 Bft) SW 223 0 min 0,000 mm 1,0 UV-I 162 W/m 4,9 C 12,7 C 0,0 km/h (0 Bft) 0,00 %
12.04.2015 08:30 13,9 C 55 % 1029,9 hPa 0,0 l/m 4,0 km/h (1 Bft) S-SW 208 15 min 0,000 mm 1,0 UV-I 238 W/m 5,0 C 13,9 C 7,9 km/h (2 Bft) 0,00 %
12.04.2015 08:45 13,6 C 56 % 1030,0 hPa 0,0 l/m 2,2 km/h (1 Bft) W-SW 250 0 min 0,000 mm 2,0 UV-I 174 W/m 5,0 C 13,6 C 4,0 km/h (1 Bft) 0,00 %
12.04.2015 09:00 13,8 C 56 % 1029,0 hPa 0,0 l/m 4,7 km/h (1 Bft) W-SW 256 0 min 0,000 mm 2,0 UV-I 214 W/m 5,2 C 13,8 C 7,9 km/h (2 Bft) 0,00 %
12.04.2015 09:15 14,1 C 54 % 1029,0 hPa 0,0 l/m 0,0 km/h (0 Bft) O-SO 117 0 min 0,000 mm 2,0 UV-I 236 W/m 4,9 C 14,1 C 0,0 km/h (0 Bft) 0,00 %
12.04.2015 09:30 14,4 C 54 % 1029,0 hPa 0,0 l/m 2,2 km/h (1 Bft) W-SW 256 0 min 0,000 mm 2,0 UV-I 247 W/m 5,2 C 14,4 C 4,0 km/h (1 Bft) 0,00 %
12.04.2015 09:45 14,4 C 54 % 1029,1 hPa 0,0 l/m 9,0 km/h (2 Bft) W-SW 256 0 min 0,000 mm 2,0 UV-I 268 W/m 5,2 C 12,9 C 11,9 km/h (2 Bft) 0,00 %
12.04.2015 10:00 14,0 C 57 % 1029,6 hPa 0,0 l/m 3,2 km/h (1 Bft) W-SW 256 0 min 0,000 mm 2,0 UV-I 210 W/m 5,6 C 14,0 C 7,9 km/h (2 Bft) 0,00 %
12.04.2015 10:15 14,6 C 54 % 1029,5 hPa 0,0 l/m 1,4 km/h (1 Bft) SW 225 0 min 0,000 mm 2,0 UV-I 249 W/m 5,4 C 14,6 C 4,0 km/h (1 Bft) 0,00 %
12.04.2015 10:30 15,0 C 53 % 1029,3 hPa 0,0 l/m 0,0 km/h (0 Bft) S-SW 210 15 min 0,000 mm 3,0 UV-I 354 W/m 5,5 C 15,0 C 0,0 km/h (0 Bft) 0,00 %
12.04.2015 10:45 15,6 C 51 % 1029,2 hPa 0,0 l/m 0,0 km/h (0 Bft) S-SW 203 15 min 0,000 mm 4,0 UV-I 399 W/m 5,5 C 15,6 C 0,0 km/h (0 Bft) 0,00 %
12.04.2015 11:00 15,5 C 50 % 1029,3 hPa 0,0 l/m 4,3 km/h (1 Bft) W 264 0 min 0,000 mm 3,0 UV-I 367 W/m 5,1 C 15,5 C 7,9 km/h (2 Bft) 0,00 %
12.04.2015 11:15 16,1 C 49 % 1029,2 hPa 0,0 l/m 4,3 km/h (1 Bft) W-SW 256 15 min 0,000 mm 3,0 UV-I 412 W/m 5,4 C 16,1 C 7,9 km/h (2 Bft) 0,00 %
12.04.2015 11:30 16,2 C 50 % 1029,2 hPa 0,0 l/m 2,9 km/h (1 Bft) W-SW 256 15 min 0,000 mm 4,0 UV-I 410 W/m 5,8 C 16,2 C 4,0 km/h (1 Bft) 0,00 %
12.04.2015 11:45 16,7 C 49 % 1028,8 hPa 0,0 l/m 0,7 km/h (0 Bft) W-SW 254 15 min 0,000 mm 4,0 UV-I 443 W/m 5,9 C 16,7 C 4,0 km/h (1 Bft) 0,00 %
12.04.2015 12:00 16,2 C 50 % 1028,7 hPa 0,0 l/m 9,0 km/h (2 Bft) W-SW 248 15 min 0,000 mm 4,0 UV-I 437 W/m 5,8 C 14,9 C 11,9 km/h (2 Bft) 0,00 %
12.04.2015 12:15 16,2 C 51 % 1028,7 hPa 0,0 l/m 6,8 km/h (2 Bft) W-NW 293 15 min 0,000 mm 5,0 UV-I 420 W/m 6,1 C 16,0 C 7,9 km/h (2 Bft) 0,00 %
12.04.2015 12:30 17,0 C 48 % 1028,4 hPa 0,0 l/m 4,7 km/h (1 Bft) W 264 15 min 0,000 mm 5,0 UV-I 546 W/m 5,9 C 17,0 C 7,9 km/h (2 Bft) 0,00 %
12.04.2015 12:45 17,2 C 47 % 1028,3 hPa 0,0 l/m 0,0 km/h (0 Bft) S-SW 197 15 min 0,000 mm 5,0 UV-I 708 W/m 5,8 C 17,2 C 0,0 km/h (0 Bft) 0,00 %
12.04.2015 13:00 17,0 C 48 % 1028,2 hPa 0,0 l/m 0,4 km/h (0 Bft) S 180 15 min 0,000 mm 4,0 UV-I 568 W/m 5,9 C 17,0 C 4,0 km/h (1 Bft) 0,00 %
12.04.2015 13:15 17,0 C 48 % 1028,1 hPa 0,0 l/m 0,7 km/h (0 Bft) W-SW 255 0 min 0,000 mm 5,0 UV-I 347 W/m 5,9 C 17,0 C 4,0 km/h (1 Bft) 0,00 %
12.04.2015 13:30 18,0 C 45 % 1027,7 hPa 0,0 l/m 5,4 km/h (1 Bft) S-SW 210 0 min 0,000 mm 4,0 UV-I 345 W/m 5,9 C 18,0 C 7,9 km/h (2 Bft) 0,00 %
12.04.2015 13:45 19,2 C 42 % 1027,7 hPa 0,0 l/m 0,4 km/h (0 Bft) SW 229 15 min 0,000 mm 4,0 UV-I 844 W/m 6,0 C 19,2 C 4,0 km/h (1 Bft) 0,00 %
12.04.2015 14:00 19,0 C 42 % 1027,4 hPa 0,0 l/m 2,9 km/h (1 Bft) W-SW 241 0 min 0,000 mm 3,0 UV-I 402 W/m 5,8 C 19,0 C 7,9 km/h (2 Bft) 0,00 %
12.04.2015 14:15 18,5 C 42 % 1027,1 hPa 0,0 l/m 0,0 km/h (0 Bft) S-SO 166 0 min 0,000 mm 4,0 UV-I 343 W/m 5,3 C 18,5 C 0,0 km/h (0 Bft) 0,00 %
12.04.2015 14:30 19,0 C 42 % 1026,9 hPa 0,0 l/m 0,0 km/h (0 Bft) S 183 15 min 0,000 mm 3,0 UV-I 868 W/m 5,8 C 19,0 C 0,0 km/h (0 Bft) 0,00 %
12.04.2015 14:45 18,5 C 41 % 1026,6 hPa 0,0 l/m 0,0 km/h (0 Bft) S-SW 200 0 min 0,000 mm 3,0 UV-I 342 W/m 5,0 C 18,5 C 0,0 km/h (0 Bft) 0,00 %
12.04.2015 15:00 18,8 C 37 % 1026,5 hPa 0,0 l/m 4,0 km/h (1 Bft) W 267 15 min 0,000 mm 3,0 UV-I 574 W/m 3,8 C 18,8 C 7,9 km/h (2 Bft) 0,00 %
12.04.2015 15:15 19,0 C 38 % 1026,1 hPa 0,0 l/m 0,0 km/h (0 Bft) SW 234 15 min 0,000 mm 3,0 UV-I 430 W/m 4,4 C 19,0 C 0,0 km/h (0 Bft) 0,00 %
12.04.2015 15:30 18,9 C 41 % 1026,3 hPa 0,0 l/m 0,0 km/h (0 Bft) S-SW 192 0 min 0,000 mm 2,0 UV-I 295 W/m 5,4 C 18,9 C 0,0 km/h (0 Bft) 0,00 %
12.04.2015 15:45 17,9 C 42 % 1026,3 hPa 0,0 l/m 0,0 km/h (0 Bft) S-SW 194 0 min 0,000 mm 2,0 UV-I 233 W/m 4,8 C 17,9 C 0,0 km/h (0 Bft) 0,00 %
12.04.2015 16:00 19,0 C 40 % 1025,5 hPa 0,0 l/m 0,0 km/h (0 Bft) S 184 15 min 0,000 mm 2,0 UV-I 638 W/m 5,1 C 19,0 C 0,0 km/h (0 Bft) 0,00 %
12.04.2015 16:15 18,6 C 37 % 1025,6 hPa 0,0 l/m 4,0 km/h (1 Bft) W 279 0 min 0,000 mm 2,0 UV-I 172 W/m 3,6 C 18,6 C 7,9 km/h (2 Bft) 0,00 %
12.04.2015 16:30 18,5 C 39 % 1025,6 hPa 0,0 l/m 0,0 km/h (0 Bft) O 82 0 min 0,000 mm 2,0 UV-I 168 W/m 4,3 C 18,5 C 0,0 km/h (0 Bft) 0,00 %
12.04.2015 16:45 18,8 C 36 % 1025,4 hPa 0,0 l/m 0,4 km/h (0 Bft) W-SW 255 0 min 0,000 mm 2,0 UV-I 184 W/m 3,4 C 18,8 C 4,0 km/h (1 Bft) 0,00 %
12.04.2015 17:00 19,2 C 36 % 1025,7 hPa 0,0 l/m 0,0 km/h (0 Bft) S 182 0 min 0,000 mm 2,0 UV-I 223 W/m 3,8 C 19,2 C 0,0 km/h (0 Bft) 0,00 %
12.04.2015 17:15 18,6 C 39 % 1025,7 hPa 0,0 l/m 0,0 km/h (0 Bft) SW 220 15 min 0,000 mm 1,0 UV-I 266 W/m 4,4 C 18,6 C 0,0 km/h (0 Bft) 0,00 %
12.04.2015 17:30 19,4 C 33 % 1025,3 hPa 0,0 l/m 0,0 km/h (0 Bft) S-SW 197 15 min 0,000 mm 1,0 UV-I 580 W/m 2,7 C 19,4 C 0,0 km/h (0 Bft) 0,00 %
12.04.2015 17:45 19,1 C 36 % 1025,2 hPa 0,0 l/m 0,0 km/h (0 Bft) S-SW 207 15 min 0,000 mm 1,0 UV-I 484 W/m 3,7 C 19,1 C 0,0 km/h (0 Bft) 0,00 %
12.04.2015 18:00 18,5 C 36 % 1025,2 hPa 0,0 l/m 2,9 km/h (1 Bft) W-SW 256 15 min 0,000 mm 1,0 UV-I 513 W/m 3,2 C 18,5 C 4,0 km/h (1 Bft) 0,00 %
12.04.2015 18:15 18,6 C 38 % 1025,6 hPa 0,0 l/m 0,0 km/h (0 Bft) SW 229 15 min 0,000 mm 1,0 UV-I 474 W/m 4,0 C 18,6 C 0,0 km/h (0 Bft) 0,00 %
12.04.2015 18:30 17,8 C 40 % 1025,3 hPa 0,0 l/m 0,0 km/h (0 Bft) W-SW 256 15 min 0,000 mm 1,0 UV-I 418 W/m 4,0 C 17,8 C 0,0 km/h (0 Bft) 0,00 %
12.04.2015 18:45 18,0 C 38 % 1025,1 hPa 0,0 l/m 0,0 km/h (0 Bft) SW 221 15 min 0,000 mm 1,0 UV-I 337 W/m 3,5 C 18,0 C 0,0 km/h (0 Bft) 0,00 %
12.04.2015 19:00 17,8 C 38 % 1025,4 hPa 0,0 l/m 0,0 km/h (0 Bft) W-SW 252 15 min 0,000 mm 0,0 UV-I 256 W/m 3,3 C 17,8 C 0,0 km/h (0 Bft) 0,00 %
12.04.2015 19:15 17,2 C 40 % 1025,6 hPa 0,0 l/m 0,0 km/h (0 Bft) S-SW 192 15 min 0,000 mm 0,0 UV-I 166 W/m 3,5 C 17,2 C 0,0 km/h (0 Bft) 0,00 %
12.04.2015 19:30 15,8 C 44 % 1025,9 hPa 0,0 l/m 0,0 km/h (0 Bft) S-SW 196 15 min 0,000 mm 0,0 UV-I 23 W/m 3,6 C 15,8 C 0,0 km/h (0 Bft) 0,00 %
12.04.2015 19:45 14,9 C 50 % 1026,2 hPa 0,0 l/m 0,0 km/h (0 Bft) S 186 0 min 0,000 mm 0,0 UV-I 2 W/m 4,6 C 14,9 C 0,0 km/h (0 Bft) 0,00 %
12.04.2015 20:00 13,9 C 52 % 1026,5 hPa 0,0 l/m 0,0 km/h (0 Bft) S 190 0 min 0,000 mm 0,0 UV-I 0 W/m 4,2 C 13,9 C 0,0 km/h (0 Bft) 0,00 %
12.04.2015 20:15 13,5 C 50 % 1026,4 hPa 0,0 l/m 0,0 km/h (0 Bft) S 186 0 min 0,000 mm 0,0 UV-I 0 W/m 3,3 C 13,5 C 0,0 km/h (0 Bft) 0,00 %
12.04.2015 20:30 13,3 C 53 % 1026,6 hPa 0,0 l/m 0,0 km/h (0 Bft) S-SW 193 0 min 0,000 mm 0,0 UV-I 0 W/m 3,9 C 13,3 C 0,0 km/h (0 Bft) 0,00 %
12.04.2015 20:45 12,9 C 55 % 1027,0 hPa 0,0 l/m 0,0 km/h (0 Bft) S 190 0 min 0,000 mm 0,0 UV-I 0 W/m 4,1 C 12,9 C 0,0 km/h (0 Bft) 0,00 %
12.04.2015 21:00 11,6 C 60 % 1027,2 hPa 0,0 l/m 0,0 km/h (0 Bft) S 191 0 min 0,000 mm 0,0 UV-I 0 W/m 4,1 C 11,6 C 0,0 km/h (0 Bft) 0,00 %
12.04.2015 21:15 10,9 C 62 % 1027,3 hPa 0,0 l/m 0,0 km/h (0 Bft) S 189 0 min 0,000 mm 0,0 UV-I 0 W/m 3,9 C 10,9 C 0,0 km/h (0 Bft) 0,00 %
12.04.2015 21:30 10,6 C 62 % 1027,4 hPa 0,0 l/m 0,0 km/h (0 Bft) S-SW 198 0 min 0,000 mm 0,0 UV-I 0 W/m 3,6 C 10,6 C 0,0 km/h (0 Bft) 0,00 %
12.04.2015 21:45 10,5 C 62 % 1027,2 hPa 0,0 l/m 0,0 km/h (0 Bft) S 189 0 min 0,000 mm 0,0 UV-I 0 W/m 3,5 C 10,5 C 0,0 km/h (0 Bft) 0,00 %
12.04.2015 22:00 10,4 C 64 % 1027,3 hPa 0,0 l/m 0,0 km/h (0 Bft) S 183 0 min 0,000 mm 0,0 UV-I 0 W/m 3,9 C 10,4 C 0,0 km/h (0 Bft) 0,00 %
12.04.2015 22:15 10,0 C 65 % 1027,3 hPa 0,0 l/m 0,0 km/h (0 Bft) S 185 0 min 0,000 mm 0,0 UV-I 0 W/m 3,7 C 10,0 C 0,0 km/h (0 Bft) 0,00 %
12.04.2015 22:30 9,8 C 67 % 1027,2 hPa 0,0 l/m 0,0 km/h (0 Bft) S 188 0 min 0,000 mm 0,0 UV-I 0 W/m 4,0 C 9,8 C 0,0 km/h (0 Bft) 0,00 %
12.04.2015 22:45 9,8 C 69 % 1027,4 hPa 0,0 l/m 0,0 km/h (0 Bft) S 187 0 min 0,000 mm 0,0 UV-I 0 W/m 4,4 C 9,8 C 0,0 km/h (0 Bft) 0,00 %
12.04.2015 23:00 9,8 C 70 % 1027,4 hPa 0,0 l/m 0,0 km/h (0 Bft) S-SW 194 0 min 0,000 mm 0,0 UV-I 0 W/m 4,6 C 9,8 C 0,0 km/h (0 Bft) 0,00 %
12.04.2015 23:15 9,5 C 72 % 1027,4 hPa 0,0 l/m 0,0 km/h (0 Bft) S 187 0 min 0,000 mm 0,0 UV-I 0 W/m 4,7 C 9,5 C 0,0 km/h (0 Bft) 0,00 %
12.04.2015 23:30 9,4 C 73 % 1027,4 hPa 0,0 l/m 0,0 km/h (0 Bft) S-SW 212 0 min 0,000 mm 0,0 UV-I 0 W/m 4,8 C 9,4 C 0,0 km/h (0 Bft) 0,00 %
12.04.2015 23:45 9,2 C 74 % 1027,2 hPa 0,0 l/m 0,0 km/h (0 Bft) S 184 0 min 0,000 mm 0,0 UV-I 0 W/m 4,8 C 9,2 C 0,0 km/h (0 Bft) 0,00 %
_ Min-Zeit 06:15 17:30 18:45 - 03:00 - - - - - - 17:30 06:15 03:00 00:00
Minimum _ 9,2 C 33 % 1025,1 hPa - 0,0 km/h (0 Bft) - - - - - - 2,7 C 9,2 C 0,0 km/h (0 Bft) 0,00 %
_ Max-Zeit 17:30 23:45 07:45 00:00 09:45 - - 07:45 00:00 12:15 14:30 12:15 17:30 00:30 00:00
Maximum _ 19,4 C 74 % 1030,1 hPa 0,0 l/m 9,0 km/h
W-SW (2 Bft)
- - 15 min 0,000 mm 5,0 UV-I 868 W/m 6,1 C 19,4 C 11,9 km/h
W-SW (2 Bft)
0,00 %
Durchschnitt _ 13,9 C 55 % 1027,6 hPa #0,0 l/m 1,3 km/h (1 Bft) W-SW - #7:00 h #0,000 mm 2,5 UV-I 323 W/m 4,6 C 13,9 C 2,8 km/h (1 Bft) 0,00 %